[[{"header":{"parameterUnit":"m.s-1","parameterCategory":1,"la1":30.2992,"la2":30.254,"lo1":-89.0895,"lo2":-89.0443,"dy":0.0025,"dx":0.0025,"nx":19,"ny":19,"refTime":"2026-04-17T09:00:00:Z","depth":0,"parameterNumber":2,"parameterNumberName":"U-component_of_WINDS"},"data":[0,0,0,0.1529,0.1532,0.1729,0.173,0.1959,0.1961,0,0,0,0,0,0,0,0,0,0,0,0.1455,0.1456,0.1528,0.1533,0.1729,0.173,0.1959,0.1961,0,0,0,0,0,0,0,0,0,0,0,0.1455,0.1456,0.1457,0.1533,0.1729,0.173,0.1958,0.1818,0,0,0,0,0,0,0,0,0,0,0.1631,0.1548,0.1455,0.1457,0.1534,0.1729,0.173,0.1812,0.1827,0.186,0,0.1883,0,0.1925,0.1975,0.1975,0,0,0,0.1544,0.1535,0.1602,0.1457,0.1536,0.1729,0.1644,0.1821,0.1838,0.1879,0.1887,0.1896,0.1929,0.1976,0.1977,0.2123,0.2123,0,0,0.1534,0.1483,0.159,0.1612,0.1579,0.1637,0.165,0.1831,0.1837,0.1888,0.1902,0.1933,0.1977,0.1979,0.2123,0.2123,0,0,0,0.1494,0.1474,0.1537,0.1602,0.1639,0.1643,0.1657,0.1829,0.1853,0.1905,0.1936,0.1978,0.1981,0.2123,0.2123,0.2079,0,0,0,0.1488,0.1452,0.1532,0.1503,0.1635,0.1736,0.165,0.1841,0.1863,0.1935,0.1978,0.1983,0.2122,0.2123,0.208,0.2067,0,0,0,0.1447,0.1447,0.147,0.1499,0.1582,0.1734,0.177,0.1847,0.1881,0.1975,0.1983,0.2122,0.2123,0.2081,0.2069,0.2091,0,0,0,0.1389,0.1429,0.1469,0.1526,0.158,0.1705,0.1769,0.1866,0.1941,0.1979,0.2123,0.2123,0.2081,0.207,0.2091,0.2099,0.2098,0,0,0.1411,0.143,0.1468,0.1509,0.1614,0.1679,0.1779,0.1897,0.1954,0.2063,0.2068,0.208,0.2069,0.2091,0.2108,0.2106,0,0,0,0.1458,0.1484,0.1523,0.1592,0.1682,0.1759,0.1867,0.1911,0.2006,0.1999,0.2095,0.209,0.2105,0.2112,0.211,0.2127,0.2123,0.2123,0.2123,0.1416,0.1485,0.1552,0.1644,0.1711,0.1821,0.1882,0.196,0.2011,0.2032,0.2065,0.2067,0.2073,0.2072,0.2088,0.2076,0.2075,0.2075,0.2075,0.1455,0.1504,0.157,0.1658,0.1731,0.1807,0.1915,0.1949,0.203,0.2048,0.2065,0.2078,0.2068,0.2086,0.2073,0.2073,0.2073,0.2074,0.2074,0.1436,0.1471,0.1523,0.1629,0.1704,0.1797,0.1872,0.1936,0.1997,0.2014,0.2056,0.2057,0.2066,0.2029,0.2029,0.2029,0.2029,0.2029,0.2029,0.1395,0.1455,0.151,0.1609,0.1661,0.1739,0.185,0.1905,0.1981,0.2022,0.2023,0.2071,0.2054,0.2049,0.203,0.203,0.203,0.2029,0.2029,0.1409,0.1416,0.15,0.1553,0.1675,0.1744,0.1825,0.193,0.1984,0.2019,0.2065,0.2041,0.2066,0.2067,0.2063,0.2049,0.2049,0.2049,0.2049,0.1392,0.1411,0.1511,0.1591,0.1677,0.1758,0.1853,0.194,0.2031,0.2069,0.2081,0.2081,0.2079,0.2105,0.2105,0.2103,0.2099,0.2099,0.2099,0.1405,0.1434,0.1502,0.159,0.169,0.1774,0.1865,0.1955,0.2061,0.2103,0.2101,0.2099,0.2099,0.2096,0.2137,0.2137,0.2133,0,0]},{"header":{"parameterUnit":"m.s-1","parameterCategory":1,"la1":30.2992,"la2":30.254,"lo1":-89.0895,"lo2":-89.0443,"dy":0.0025,"dx":0.0025,"nx":19,"ny":19,"refTime":"2026-04-17T09:00:00:Z","depth":0,"parameterNumber":3,"parameterNumberName":"V-component_of_WINDS"},"data":[0,0,0,4.2531,4.2534,4.2671,4.2672,4.2841,4.2842,0,0,0,0,0,0,0,0,0,0,0,4.2488,4.2489,4.253,4.2534,4.2671,4.2672,4.284,4.2842,0,0,0,0,0,0,0,0,0,0,0,4.2488,4.2489,4.249,4.2534,4.2671,4.2672,4.284,4.2738,0,0,0,0,0,0,0,0,0,0,4.2606,4.2565,4.2489,4.249,4.2535,4.2671,4.2672,4.2733,4.2744,4.2776,0,4.2806,0,4.2827,4.2853,4.2854,0,0,0,4.2534,4.2556,4.2595,4.2491,4.2536,4.2671,4.2609,4.274,4.2752,4.2791,4.2809,4.2815,4.283,4.2854,4.2855,4.3045,4.3046,0,0,4.2527,4.2511,4.2586,4.2603,4.2584,4.2605,4.2614,4.2747,4.2764,4.2809,4.2819,4.2833,4.2855,4.2857,4.3044,4.3045,0,0,0,4.2505,4.2506,4.2542,4.2596,4.2622,4.2609,4.2619,4.2758,4.2772,4.2821,4.2835,4.2856,4.2858,4.3043,4.3044,4.3074,0,0,0,4.25,4.2493,4.2538,4.253,4.2619,4.2692,4.2627,4.2762,4.2778,4.2834,4.2856,4.286,4.3042,4.3044,4.3071,4.309,0,0,0,4.248,4.249,4.251,4.2529,4.2588,4.269,4.2711,4.2766,4.2786,4.2854,4.286,4.3042,4.3044,4.3069,4.3086,4.3137,0,0,0,4.2452,4.2531,4.251,4.2604,4.2587,4.2709,4.2711,4.2801,4.2863,4.2857,4.3042,4.3044,4.3068,4.3083,4.3134,4.3177,4.3193,0,0,4.2543,4.2542,4.2598,4.2583,4.2706,4.2689,4.2815,4.2883,4.2902,4.2996,4.3001,4.3072,4.3085,4.3136,4.3291,4.3304,0,0,0,4.2622,4.2662,4.2698,4.2758,4.2815,4.2866,4.2918,4.2944,4.3025,4.2948,4.3104,4.3113,4.3143,4.3164,4.3175,4.3203,4.3054,4.3053,4.3053,4.2725,4.275,4.2845,4.2886,4.2944,4.2999,4.3048,4.3092,4.3096,4.3133,4.316,4.3252,4.3276,4.3285,4.3313,4.3185,4.3185,4.3185,4.3185,4.2861,4.2922,4.293,4.3026,4.305,4.3129,4.3186,4.3187,4.3264,4.3232,4.326,4.3224,4.3299,4.3324,4.3188,4.3187,4.3187,4.3187,4.3186,4.2931,4.2965,4.2999,4.309,4.3157,4.3195,4.327,4.3289,4.3306,4.3334,4.3365,4.3365,4.3367,4.3348,4.3348,4.3348,4.3349,4.3349,4.3349,4.2991,4.3028,4.3091,4.3162,4.3204,4.3262,4.3321,4.3362,4.3412,4.342,4.342,4.3421,4.3302,4.3272,4.3354,4.3353,4.3353,4.3352,4.3352,4.3119,4.3094,4.3191,4.3234,4.332,4.3386,4.341,4.3494,4.3531,4.3567,4.3564,4.3473,4.3471,4.3462,4.3438,4.3558,4.3558,4.3558,4.3558,4.3179,4.3181,4.3286,4.3354,4.3423,4.3456,4.3563,4.361,4.3654,4.3678,4.3664,4.3633,4.3623,4.3627,4.3615,4.3592,4.3749,4.3749,4.3749,4.3259,4.327,4.3358,4.3405,4.3474,4.3533,4.3635,4.3712,4.3756,4.3757,4.3698,4.369,4.364,4.3622,4.362,4.3601,4.3559,0,0]}]]